Location: Boca do Mato
(22.9085°S, 43.2930°W)
Time: 11:32:57
(UTC+00:00)

Cosmos 2266 Rocket - Pass Details

Date: 04 November 2020
Orbit: 935 x 1007 km, 82.9° (Epoch: 28 November)

Event Time Altitude Azimuth Distance (km) Brightness Sun altitude
Rises 07:34:24 0° 187° (S) 3,648 7.2 -7.7°
Reaches altitude 10° 07:36:55 10° 187° (S) 2,688 6.5 -7.2°
Maximum altitude 07:43:03 80° 273° (W) 960 3.9 -5.8°
Drops below altitude 10° 07:49:04 10° 360° (N) 2,637 6.1 -4.5°
Sets 07:51:31 0° 1° (N) 3,573 6.8 -4.0°
